Location: Calberlah
(52.4230°N, 10.6240°E)
Time: 07:01:43
(UTC+00:00)

USA 229 DEB - Pass Details

Date: 19 May 2025
Orbit: 872 x 1339 km, 63.4° (Epoch: 14 June)

Event Time Altitude Azimuth Distance (km) Brightness Sun altitude
Exits shadow 23:20:44 24° 209° (SSW) 1,853 4.5 -17.6°
Maximum altitude 23:24:37 72° 130° (SE) 1,046 3.5 -17.6°
Drops below altitude 10° 23:31:27 10° 48° (NE) 2,936 6.7 -17.5°
Sets 23:34:17 0° 47° (NE) 3,969 7.5 -17.5°
